#timestamp,LO_Frequency,Hit 
1500796815.6,286046979.0,N
1500796835.4,286046981.8,N
1500796855.2,286046979.5,N
1500796875.1,286046981.6,N
1500796876.0,286046981.6,N
1500796895.8,286046981.6,N
1500796915.6,286046981.0,N
1500796935.5,286046980.5,N
1500796955.3,286046980.5,N
1500796975.1,286046983.0,N
1500796995.9,286046987.9,N
1500797015.7,286046989.7,N
1500797035.5,286046987.7,N
1500797055.4,286046986.4,N
1500797075.2,286046986.5,N
1500797095.0,286046984.1,N
1500797095.9,286046984.1,N
1500797115.8,286046985.0,N
1500797135.6,286046984.1,N
1500797155.4,286046987.7,N
1500797175.3,286046989.6,N
1500797195.1,286046991.2,N
1500797215.8,286046992.6,N
1500797235.7,286046992.2,N
1500797255.5,286046992.4,N
1500797275.3,286046992.7,N
1500797295.2,286046994.7,N
1500797315.9,286046993.6,N
1500797335.7,286046991.0,N
1500797355.6,286046995.2,N
1500797375.4,286046994.2,N
1500797395.2,286046993.1,N
1500797415.1,286046992.4,N
1500797416.0,286046992.4,N
1500797435.8,286046992.9,N
1500797455.6,286046991.9,N
1500797475.5,286046994.2,N
1500797495.3,286046993.1,N
1500797515.1,286046986.9,N
1500797535.8,286046987.1,N
1500797555.7,286046987.7,N
1500797575.5,286046988.7,N
1500797595.3,286046990.8,N
1500797615.2,286046994.6,N
1500797635.0,286046992.2,N
1500797635.9,286046992.2,N
1500797655.7,286046989.8,N
1500797675.6,286046987.0,N
1500797695.4,286046989.0,N
1500797715.2,286046987.5,N
1500797735.1,286046986.3,N
1500797736.0,286046986.3,N
1500797755.8,286046984.0,N
1500797775.6,286046984.8,N
1500797795.5,286046983.8,N
1500797815.3,286046985.4,N
1500797835.1,286046987.5,N
1500797855.9,286046986.1,N
1500797875.7,286046985.5,N
1500797895.5,286046988.2,N
1500797915.4,286046989.6,N
1500797935.2,286046988.2,N
1500797955.0,286046986.9,N
1500797955.9,286046986.9,N
1500797975.8,286046989.9,N
1500797995.6,286046989.5,N
1500798015.4,286046985.4,N
1500798035.2,286046986.7,N
1500798055.1,286046984.2,N
1500798056.0,286046984.2,N
1500798075.8,286046986.0,N
1500798095.7,286046988.3,N
1500798115.5,286046987.9,N
1500798135.3,286046987.8,N
1500798155.2,286046986.9,N
1500798175.9,286046985.7,N
1500798195.7,286046982.5,N
1500798215.6,286046982.6,N
1500798235.4,286046981.1,N
1500798255.2,286046981.6,N
1500798275.0,286046981.3,N
1500798276.0,286046981.3,N
1500798295.8,286046983.5,N
1500798315.6,286046982.6,N
1500798335.4,286046983.3,N
1500798355.3,286046981.3,N
1500798375.1,286046981.8,N
1500798395.8,286046981.3,N
1500798415.7,286046979.1,N
1500798435.5,286046981.6,N
1500798455.3,286046981.7,N
1500798475.2,286046978.9,N
1500798495.9,286046979.6,N
1500798515.7,286046981.5,N
1500798535.6,286046981.6,N
1500798555.4,286046981.5,N
1500798575.2,286046983.0,N
1500798595.1,286046978.9,N
1500798596.0,286046978.9,N
1500798615.8,286046981.8,N
1500798635.6,286046979.5,N
1500798655.5,286046981.6,N
1500798675.3,286046982.0,N
1500798695.1,286046980.0,N
1500798715.9,286046977.8,N
1500798735.7,286046978.1,N
1500798755.5,286046978.5,N
1500798775.4,286046977.8,N
1500798795.2,286046980.4,N
1500798815.0,286046980.4,N
1500798815.9,286046980.4,N
1500798835.8,286046978.6,N
1500798855.6,286046974.1,N
1500798875.4,286046975.3,N
1500798895.2,286046974.6,N
1500798915.1,286046974.1,N
1500798916.0,286046974.1,N
1500798935.8,286046978.6,N
1500798955.6,286046977.3,N
1500798975.5,286046979.7,N
1500798995.3,286046979.5,N
1500799015.1,286046978.0,N
1500799035.9,286046978.4,N
1500799055.7,286046976.9,N
1500799075.5,286046976.1,N
1500799095.4,286046975.3,N
1500799115.2,286046974.6,N
1500799135.0,286046976.4,N
1500799135.9,286046976.4,N
1500799155.8,286046976.7,N
1500799175.6,286046974.7,N
1500799195.4,286046976.7,N
1500799215.3,286046972.6,N
1500799235.1,286046974.7,N
1500799236.0,286046974.7,N
1500799255.8,286046971.5,N
1500799275.7,286046971.9,N
1500799295.5,286046971.0,N
1500799315.3,286046970.0,N
1500799335.2,286046972.3,N
1500799355.9,286046972.0,N
1500799375.7,286046973.5,N
1500799395.6,286046973.5,N
1500799415.4,286046973.7,N
1500799435.2,286046971.1,N
1500799455.1,286046973.3,N
1500799456.0,286046973.3,N
1500799475.8,286046973.7,N
1500799495.6,286046972.9,N
1500799515.5,286046973.5,N
1500799535.3,286046971.7,N
1500799555.1,286046970.8,N
1500799575.8,286046969.8,N
1500799595.7,286046972.1,N
1500799615.5,286046970.9,N
1500799635.3,286046973.9,N
1500799655.2,286046970.9,N
1500799675.0,286046972.8,N
1500799675.9,286046972.8,N
1500799695.7,286046973.4,N
1500799715.6,286046969.6,N
1500799735.4,286046969.9,N
1500799755.2,286046972.0,N
1500799775.1,286046969.8,N
1500799776.0,286046969.8,N
1500799795.8,286046967.8,N
1500799815.6,286046969.0,N
1500799835.5,286046967.1,N
1500799855.3,286046966.3,N
1500799875.1,286046968.1,N
1500799895.9,286046968.6,N
1500799915.7,286046968.5,N
1500799935.5,286046968.9,N
1500799955.4,286046967.8,N
1500799975.2,286046968.6,N
1500799995.0,286046968.7,N
1500799995.9,286046968.7,N
1500800015.8,286046970.7,N
1500800035.6,286046969.9,N
1500800055.4,286046967.9,N
1500800075.3,286046968.5,N
1500800095.1,286046969.8,N
1500800096.0,286046969.8,N
1500800115.8,286046972.4,N
1500800135.7,286046967.9,N
1500800155.5,286046968.6,N
1500800175.3,286046969.1,N
1500800195.2,286046967.5,N
1500800215.9,286046966.7,N
1500800235.7,286046966.7,N
1500800255.6,286046965.1,N
1500800275.4,286046963.4,N
1500800295.2,286046963.1,N
1500800315.0,286046962.9,N
1500800316.0,286046962.9,N
1500800335.8,286046963.3,N
1500800355.6,286046963.4,N
1500800375.4,286046963.1,N
1500800395.3,286046963.7,N
